BEIDOU 7

Last updated on Sun Feb 19 2023 00:02:46 GMT+0000 (Coordinated Universal Time)

1 37256U 10068A 23049.56090977 -.00000159 00000+0 00000+0 0 9993 2 37256 49.7680 286.6939 0023145 205.3505 325.6249 1.00290313 44612
UTC large
Height (km)
Speed (km/s)
/
Latitude / Longitude
Inclination (degrees)
Orbital Period (minutes)
Azimuth
Elevation
Range (km)
Doppler Factor

Next 0 passes for location: London (51.5072 / 0.1276)

Sorry there are no passes over London.